Regional Weather Roundup
Issued by NWS

Home | Current Version | Previous Version | Text Only | Print | Product List | Glossary Off
Versions: 1 2 3 4 5 6 7 8 9 10 11 12 13 14 15 16 17 18 19 20 21 22 23 24 25 26 27 28

000
ASUS45 KSLC 280910
RWRUT

UTAH REGIONAL WEATHER ROUNDUP
NATIONAL WEATHER SERVICE SALT LAKE CITY UT
300 AM MDT FRI APR 28 2017

UTZ001>011-023>025-281000-

NORTHERN UTAH

CITY           SKY/WX    TMP DP  RH WIND       PRES   REMARKS
BRIGHAM CITY   PTCLDY    36  20  53 NW6       29.88S WCI  31
HILL AFB       CLOUDY    37  19  46 NW9       29.86S WCI  31
LOGAN          PTCLDY    31  24  75 E5        29.86S WCI  26
OGDEN          CLOUDY    36  22  56 W6        29.86S WCI  31
SALT LAKE CITY CLOUDY    40  32  73 CALM      29.87R
TOOELE VALLEY  MOCLDY    34  27  75 W8        29.88F WCI  27
WENDOVER       CLEAR     40  20  44 N13G28    29.91F WCI  32
HEBER CITY     LGT SNOW  30  30 100 CALM      29.82F
WEST JORDAN    CLOUDY    40  31  71 NW6       29.87F

$$

UTZ011>015-024>027-281000-

CENTRAL/NORTHEAST UTAH

CITY           SKY/WX    TMP DP  RH WIND       PRES   REMARKS
PROVO AIRPORT  NOT AVBL
MOAB/CANYONLAN CLEAR     40  16  37 NW13      29.76S WCI  32
DELTA          CLOUDY    32  30  93 CALM      29.90S
PRICE          PTCLDY    33  20  58 NW16      29.78F WCI  23
ROOSEVELT      PTCLDY    36  19  51 W6        29.78S WCI  31
VERNAL         CLOUDY    33  18  53 W6        29.75F WCI  28

$$

UTZ013>016-019>022-027-281000-

SOUTHERN UTAH

CITY           SKY/WX    TMP DP  RH WIND       PRES   REMARKS
BRYCE CANYON   PTCLDY    25  19  78 NW6       29.82F WCI  18
CEDAR CITY     PTCLDY    32  25  75 N9        29.85S WCI  24
MILFORD        CLOUDY    38  26  62 NE9       29.89F WCI  31
ST GEORGE      MOSUNNY   57  25  29 VRB3      29.80
HANKSVILLE     CLEAR     34  21  60 CALM      29.82F
BLANDING       MOCLDY    39  19  44 NW9       29.84F WCI  33

$$

REGIONAL REPORTS     COLORADO/ARIZONA

CITY           SKY/WX    TMP DP  RH WIND       PRES   REMARKS
CRAIG, CO      CLOUDY    33  23  66 W7        29.75F WCI  27
GRAND JUNCTION CLOUDY    34  17  50 NW8       29.76S WCI  27
RIFLE, CO      MOCLDY    31  29  92 W3        29.75F
MONTROSE, CO   CLEAR     34  18  52 W7        29.77S WCI  28
CORTEZ, CO     CLOUDY    42  19  39 N9        29.76F
COLORADO CITY    N/A     50  21  32 NW12      29.83S
PAGE, AZ       MOCLDY    53  22  29 VRB7G16   29.77R
GRAND CANYON   CLOUDY    42  15  33 SW5       29.80F
KINGMAN, AZ    CLEAR     53  13  20 VRB3      29.73R
FLAGSTAFF, AZ  CLEAR     43  21  41 W5        29.81S

$$

REGIONAL REPORTS    NEVADA/IDAHO/WYOMING

CITY           SKY/WX    TMP DP  RH WIND       PRES   REMARKS
LAS VEGAS, NV  MOCLDY    67   8  10 NE24G30   29.74R
ELY, NY        CLEAR     24  17  74 W7        29.93S WCI  16
ELKO, NV       CLOUDY    35  26  69 S7        29.96F WCI  29
POCATELLO, ID  LGT SNOW  31  30  96 SW15      29.88F FOG     WCI  20
BURLEY, ID     FLURRIES  34  27  75 W16G28    29.89R WCI  24
EVANSTON, WY   CLEAR     21  18  88 SW10      29.80F WCI  10
ROCK SPRINGS,  CLOUDY    30  21  69 W20       29.73F WCI  17

$$




USA.gov is the U.S. government's official web portal to all federal, state and local government web resources and services.